Location: Yellowknife
(62.4500°N, 114.3500°W)
Time: 03:59:40
(UTC-06:00)

Amateur Radio Satellites - All Passes

Search period start: 17 April 2014 03:29
Search period end: 18 April 2014 03:29
Location: Yellowknife, 62.4500°N, 114.3500°W

Satellite Date Start Highest point End Downlink Frequencies (MHz)
Time Altitude Azimuth
KITSAT 1 17 Apr 03:30:36 03:36:11 21° 104° (ESE) 03:41:46 435.175 FM
STRAND 1 17 Apr 03:31:55 03:34:06 13° 22° (NNE) 03:36:16 ?
Oscar 19 17 Apr 03:33:57 03:39:08 62° 104° (ESE) 03:44:18 437.125 CW, 437.150 USB
TMSAT-1 17 Apr 03:38:45 03:42:23 18° 82° (E) 03:46:01 436.925 FM
Oscar 16 17 Apr 03:41:46 03:46:59 72° 106° (ESE) 03:52:11 437.025 USB, Beacon 2401.1428
JAS-1B 17 Apr 03:44:42 03:47:10 13° 73° (ENE) 03:49:36 435.800 - 435.900 CW/SSB
UOSAT-12 17 Apr 03:53:05 03:56:51 24° 235° (SW) 04:00:38 437.025 FM, 437.400 FM
AO-7 17 Apr 03:55:49 03:59:47 14° 70° (ENE) 04:03:45 29.400 - 29.500 MHz
AO-Echo 17 Apr 03:57:34 04:02:23 50° 100° (E) 04:07:02 ?
PCSat 17 Apr 04:06:23 04:11:49 78° 142° (SE) 04:17:17 145.825 MHz
Uribyol 2 17 Apr 04:12:05 04:17:17 71° 106° (ESE) 04:22:28 436.500 FM
OPAL 17 Apr 04:13:12 04:17:29 27° 267° (W) 04:21:51 ?
Uosat F 17 Apr 04:14:25 04:17:09 15° 80° (E) 04:19:52 435.120 FM
MaSat-1 17 Apr 04:15:27 04:17:16 17° 6° (N) 04:19:07 437.345 MHz
Gurwin Techsat 1B 17 Apr 04:28:05 04:33:10 43° 97° (E) 04:38:13 435.225 FM
AO-27 17 Apr 04:51:01 04:56:13 73° 295° (WNW) 05:01:23 436.795 MHz FM
ITAMSAT 1 17 Apr 05:02:29 05:07:38 64° 297° (WNW) 05:12:45 435.822 SSB
Sapphire 17 Apr 05:04:40 05:10:06 73° 334° (NNW) 05:15:34 437.095 MHz 1200 baud AX-25 AFSK
STRAND 1 17 Apr 05:07:39 05:11:54 27° 46° (NE) 05:16:09 ?
Oscar 19 17 Apr 05:13:33 05:18:23 39° 306° (NW) 05:23:11 437.125 CW, 437.150 USB
TMSAT-1 17 Apr 05:18:02 05:23:21 67° 105° (ESE) 05:28:38 436.925 FM
Oscar 16 17 Apr 05:21:26 05:26:07 35° 308° (NW) 05:30:48 437.025 USB, Beacon 2401.1428
KITSAT 1 17 Apr 05:22:09 05:29:58 54° 129° (SE) 05:37:48 435.175 FM
JAS-1B 17 Apr 05:33:57 05:39:44 49° 99° (E) 05:45:13 435.800 - 435.900 CW/SSB
AO-Echo 17 Apr 05:36:31 05:41:13 44° 302° (WNW) 05:45:45 ?
AO-7 17 Apr 05:47:26 05:55:15 42° 96° (E) 06:03:02 29.400 - 29.500 MHz
PCSat 17 Apr 05:50:11 05:55:34 58° 346° (NNW) 06:00:57 145.825 MHz
Uribyol 2 17 Apr 05:51:52 05:56:33 35° 308° (NW) 06:01:13 436.500 FM
Uosat F 17 Apr 05:52:08 05:57:06 55° 103° (ESE) 06:02:01 435.120 FM
MaSat-1 17 Apr 05:53:55 05:56:18 36° 30° (NNE) 05:58:52 437.345 MHz
Gurwin Techsat 1B 17 Apr 06:08:10 06:13:23 56° 299° (WNW) 06:18:33 435.225 FM
AO-27 17 Apr 06:30:58 06:35:08 25° 317° (NW) 06:39:16 436.795 MHz FM
ITAMSAT 1 17 Apr 06:42:27 06:46:25 23° 319° (NW) 06:50:22 435.822 SSB
STRAND 1 17 Apr 06:45:28 06:50:36 83° 68° (ENE) 06:55:46 ?
Sapphire 17 Apr 06:48:48 06:54:08 53° 359° (N) 06:59:28 437.095 MHz 1200 baud AX-25 AFSK
Oscar 19 17 Apr 06:53:29 06:56:37 16° 329° (NNW) 06:59:46 437.125 CW, 437.150 USB
TMSAT-1 17 Apr 06:58:15 07:03:07 38° 307° (NW) 07:07:58 436.925 FM
Oscar 16 17 Apr 07:01:23 07:04:16 15° 331° (NNW) 07:07:10 437.025 USB, Beacon 2401.1428
Hamsat 17 Apr 07:06:13 07:09:45 24° 89° (E) 07:13:17 145.90 MHz
AO-Echo 17 Apr 07:15:56 07:18:59 17° 326° (NW) 07:22:00 ?
KITSAT 1 17 Apr 07:17:00 07:25:11 83° 335° (NNW) 07:33:22 435.175 FM
JAS-1B 17 Apr 07:24:51 07:30:39 50° 305° (NW) 07:36:06 435.800 - 435.900 CW/SSB
Uosat F 17 Apr 07:31:09 07:35:52 42° 305° (NW) 07:40:34 435.120 FM
Uribyol 2 17 Apr 07:31:57 07:34:51 15° 332° (NNW) 07:37:45 436.500 FM
MaSat-1 17 Apr 07:32:20 07:34:47 37° 231° (SW) 07:37:28 437.345 MHz
PCSat 17 Apr 07:34:19 07:39:41 56° 11° (N) 07:45:03 145.825 MHz
RS-15 17 Apr 07:36:22 07:45:16 29° 107° (ESE) 07:54:00 29.354 - 29.394 USB, Beacon 29.352 USB
AO-7 17 Apr 07:40:29 07:48:50 81° 301° (WNW) 07:57:09 29.400 - 29.500 MHz
Gurwin Techsat 1B 17 Apr 07:48:37 07:52:30 21° 322° (NW) 07:56:22 435.225 FM
AO-27 17 Apr 08:11:08 08:13:10 12° 341° (NNW) 08:15:12 436.795 MHz FM
JAS-2 17 Apr 08:14:32 08:19:13 32° 93° (E) 08:24:05 435.800 - 435.900 CW/SSB, 435.910 FM
ITAMSAT 1 17 Apr 08:22:37 08:24:22 12° 343° (NNW) 08:26:07 435.822 SSB
STRAND 1 17 Apr 08:26:07 08:30:26 27° 270° (W) 08:34:45 ?
Sapphire 17 Apr 08:32:44 08:38:11 70° 24° (NNE) 08:43:37 437.095 MHz 1200 baud AX-25 AFSK
SO-67 17 Apr 08:37:18 08:40:30 32° 96° (E) 08:43:41 435.3500 MHz FM
TMSAT-1 17 Apr 08:38:44 08:41:53 16° 330° (NNW) 08:45:01 436.925 FM
Hamsat 17 Apr 08:41:54 08:46:15 77° 290° (WNW) 08:50:36 145.90 MHz
HO-68 17 Apr 09:08:03 09:12:39 18° 77° (ENE) 09:17:14 435.675 MHz FM
Uosat F 17 Apr 09:10:33 09:13:39 17° 327° (NNW) 09:16:45 435.120 FM
KITSAT 1 17 Apr 09:13:06 09:21:15 69° 2° (N) 09:29:22 435.175 FM
JAS-1B 17 Apr 09:15:46 09:20:11 21° 331° (NNW) 09:24:21 435.800 - 435.900 CW/SSB
PCSat 17 Apr 09:18:02 09:23:31 87° 215° (SW) 09:28:58 145.825 MHz
Gurwin Techsat 1B 17 Apr 09:29:10 09:30:48 11° 346° (NNW) 09:32:26 435.225 FM
AO-7 17 Apr 09:33:24 09:40:55 40° 326° (NNW) 09:48:26 29.400 - 29.500 MHz
RS-15 17 Apr 09:44:46 09:55:41 66° 135° (SE) 10:06:25 29.354 - 29.394 USB, Beacon 29.352 USB
AO-27 17 Apr 09:50:21 09:50:44 10° 5° (N) 09:51:07 436.795 MHz FM
JAS-2 17 Apr 09:59:40 10:04:50 68° 295° (WNW) 10:10:14 435.800 - 435.900 CW/SSB, 435.910 FM
ITAMSAT 1 17 Apr 10:01:14 10:01:54 10° 8° (N) 10:02:34 435.822 SSB
Oscar 19 17 Apr 10:09:52 10:11:31 12° 17° (NNE) 10:13:12 437.125 CW, 437.150 USB
Oscar 11 17 Apr 10:10:10 10:12:40 15° 83° (E) 10:15:10 145.825 FM, Beacon 2401.500 USB
SO-67 17 Apr 10:10:27 10:13:48 41° 296° (WNW) 10:17:07 435.3500 MHz FM
Sapphire 17 Apr 10:16:20 10:21:38 54° 228° (SW) 10:26:54 437.095 MHz 1200 baud AX-25 AFSK
Oscar 16 17 Apr 10:17:12 10:19:11 12° 20° (NNE) 10:21:10 437.025 USB, Beacon 2401.1428
Hamsat 17 Apr 10:18:28 10:21:44 21° 312° (NW) 10:25:00 145.90 MHz
TMSAT-1 17 Apr 10:19:15 10:19:57 10° 354° (N) 10:20:39 436.925 FM
Uribyol 2 17 Apr 10:47:58 10:50:02 12° 20° (NNE) 10:52:06 436.500 FM
HO-68 17 Apr 10:55:06 11:02:08 53° 102° (ESE) 11:09:09 435.675 MHz FM
PCSat 17 Apr 11:01:42 11:06:31 33° 238° (WSW) 11:11:18 145.825 MHz
JAS-1B 17 Apr 11:05:30 11:08:50 15° 359° (N) 11:12:00 435.800 - 435.900 CW/SSB
Gurwin Techsat 1B 17 Apr 11:07:27 11:08:46 11° 11° (N) 11:10:04 435.225 FM
KITSAT 1 17 Apr 11:09:02 11:17:14 89° 30° (NNE) 11:25:22 435.175 FM
AO-7 17 Apr 11:25:20 11:31:59 28° 353° (N) 11:38:38 29.400 - 29.500 MHz
AO-27 17 Apr 11:25:26 11:28:26 16° 29° (NNE) 11:31:27 436.795 MHz FM
FUNcube-1 17 Apr 11:28:44 11:32:10 24° 90° (E) 11:35:36 145.950 - 145.970 MHz USB
ITAMSAT 1 17 Apr 11:36:25 11:39:38 17° 32° (NNE) 11:42:51 435.822 SSB
SO-67 17 Apr 11:45:10 11:46:10 11° 317° (NW) 11:47:11 435.3500 MHz FM
JAS-2 17 Apr 11:45:20 11:49:19 23° 319° (NW) 11:53:23 435.800 - 435.900 CW/SSB, 435.910 FM
Oscar 19 17 Apr 11:45:22 11:49:18 23° 41° (NE) 11:53:16 437.125 CW, 437.150 USB
Oscar 11 17 Apr 11:45:24 11:49:45 65° 104° (ESE) 11:54:06 145.825 FM, Beacon 2401.500 USB
Oscar 16 17 Apr 11:52:55 11:57:03 25° 43° (NE) 12:01:12 437.025 USB, Beacon 2401.1428
TMSAT-1 17 Apr 11:55:48 11:57:53 12° 19° (NNE) 11:59:58 436.925 FM
RS-15 17 Apr 11:56:49 12:07:56 83° 345° (NNW) 12:18:58 29.354 - 29.394 USB, Beacon 29.352 USB
Sapphire 17 Apr 12:00:34 12:04:04 18° 250° (WSW) 12:07:34 437.095 MHz 1200 baud AX-25 AFSK
AO-Echo 17 Apr 12:06:29 12:09:55 18° 38° (NE) 12:13:18 ?
Uribyol 2 17 Apr 12:23:53 12:28:03 26° 44° (NE) 12:32:14 436.500 FM
Uosat F 17 Apr 12:26:25 12:27:34 11° 15° (NNE) 12:28:43 435.120 FM
HO-68 17 Apr 12:43:03 12:50:05 61° 305° (NW) 12:57:07 435.675 MHz FM
Gurwin Techsat 1B 17 Apr 12:43:22 12:46:59 19° 35° (NE) 12:50:36 435.225 FM
JAS-1B 17 Apr 12:52:46 12:57:27 20° 27° (NNE) 13:01:45 435.800 - 435.900 CW/SSB
AO-27 17 Apr 13:02:04 13:06:48 37° 52° (NE) 13:11:32 436.795 MHz FM
KITSAT 1 17 Apr 13:04:34 13:12:12 47° 236° (SW) 13:19:47 435.175 FM
FUNcube-1 17 Apr 13:04:52 13:09:04 74° 291° (WNW) 13:13:19 145.950 - 145.970 MHz USB
ITAMSAT 1 17 Apr 13:13:14 13:18:04 41° 55° (NE) 13:22:54 435.822 SSB
AO-7 17 Apr 13:15:51 13:22:48 32° 20° (NNE) 13:29:46 29.400 - 29.500 MHz
Oscar 11 17 Apr 13:21:55 13:25:46 31° 305° (NW) 13:29:37 145.825 FM, Beacon 2401.500 USB
Oscar 19 17 Apr 13:22:50 13:27:56 64° 63° (ENE) 13:33:05 437.125 CW, 437.150 USB
Saudisat 1A 17 Apr 13:28:26 13:32:20 30° 130° (SE) 13:36:14 436.775 MHz
Oscar 16 17 Apr 13:30:40 13:35:48 74° 66° (ENE) 13:41:00 437.025 USB, Beacon 2401.1428
JAS-2 17 Apr 13:31:10 13:32:50 12° 344° (NNW) 13:34:29 435.800 - 435.900 CW/SSB, 435.910 FM
TMSAT-1 17 Apr 13:32:04 13:36:17 25° 43° (NE) 13:40:30 436.925 FM
AO-Echo 17 Apr 13:42:49 13:47:49 49° 60° (ENE) 13:52:41 ?
Uosat F 17 Apr 14:01:08 14:04:47 21° 39° (NE) 14:08:27 435.120 FM
Uribyol 2 17 Apr 14:01:48 14:06:58 76° 66° (ENE) 14:12:09 436.500 FM
RS-15 17 Apr 14:09:54 14:20:58 84° 16° (NNE) 14:32:02 29.354 - 29.394 USB, Beacon 29.352 USB
Gurwin Techsat 1B 17 Apr 14:20:54 14:25:59 48° 58° (ENE) 14:31:05 435.225 FM
HO-68 17 Apr 14:30:51 14:36:47 29° 330° (NNW) 14:42:43 435.675 MHz FM
JAS-1B 17 Apr 14:40:07 14:46:53 43° 51° (NE) 14:52:44 435.800 - 435.900 CW/SSB
Oscar 10/S400 17 Apr 14:40:44 15:47:19 19° 257° (WSW) 17:59:25 145.825 - 145.975 CW/USB, Beacon 145.810 USB
AO-27 17 Apr 14:40:57 14:46:08 68° 254° (WSW) 14:51:21 436.795 MHz FM
FUNcube-1 17 Apr 14:41:55 14:44:59 20° 313° (NW) 14:48:04 145.950 - 145.970 MHz USB
ITAMSAT 1 17 Apr 14:52:22 14:57:30 59° 257° (WSW) 15:02:39 435.822 SSB
Oscar 11 17 Apr 14:59:26 15:00:52 12° 328° (NNW) 15:02:18 145.825 FM, Beacon 2401.500 USB
KITSAT 1 17 Apr 15:01:01 15:05:42 17° 260° (W) 15:10:22 435.175 FM
Oscar 19 17 Apr 15:02:55 15:07:39 36° 265° (W) 15:12:26 437.125 CW, 437.150 USB
AO-7 17 Apr 15:06:19 15:14:17 55° 46° (NE) 15:22:17 29.400 - 29.500 MHz
Saudisat 1A 17 Apr 15:07:04 15:11:33 80° 153° (SSE) 15:16:02 436.775 MHz
TMSAT-1 17 Apr 15:10:17 15:15:34 71° 65° (ENE) 15:20:52 436.925 FM
Oscar 16 17 Apr 15:11:08 15:15:40 31° 268° (W) 15:20:16 437.025 USB, Beacon 2401.1428
JAS-2 17 Apr 15:14:41 15:15:53 11° 11° (N) 15:17:04 435.800 - 435.900 CW/SSB, 435.910 FM
AO-Echo 17 Apr 15:21:40 15:26:42 47° 261° (W) 15:31:37 ?
Uosat F 17 Apr 15:37:53 15:42:49 58° 61° (ENE) 15:47:45 435.120 FM
Uribyol 2 17 Apr 15:42:28 15:46:59 30° 268° (W) 15:51:31 436.500 FM
Gurwin Techsat 1B 17 Apr 16:00:51 16:06:02 51° 260° (W) 16:11:14 435.225 FM
OPAL 17 Apr 16:10:38 16:15:28 37° 99° (E) 16:20:17 ?
HO-68 17 Apr 16:17:38 16:22:38 21° 356° (N) 16:27:38 435.675 MHz FM
RS-15 17 Apr 16:22:27 16:33:09 64° 226° (SW) 16:43:58 29.354 - 29.394 USB, Beacon 29.352 USB
AO-27 17 Apr 16:23:05 16:26:39 18° 277° (W) 16:30:14 436.795 MHz FM
JAS-1B 17 Apr 16:29:50 16:37:26 72° 253° (WSW) 16:43:49 435.800 - 435.900 CW/SSB
ITAMSAT 1 17 Apr 16:34:59 16:38:08 16° 279° (W) 16:41:17 435.822 SSB
Hamsat 17 Apr 16:36:08 16:39:00 18° 45° (NE) 16:41:54 145.90 MHz
Saudisat 1A 17 Apr 16:46:54 16:51:22 67° 356° (N) 16:55:49 436.775 MHz
TMSAT-1 17 Apr 16:51:12 16:55:57 33° 267° (W) 17:00:45 436.925 FM
JAS-2 17 Apr 16:55:29 16:59:15 20° 37° (NE) 17:02:56 435.800 - 435.900 CW/SSB, 435.910 FM
AO-7 17 Apr 16:58:47 17:07:03 69° 251° (WSW) 17:15:22 29.400 - 29.500 MHz
AO-Echo 17 Apr 17:04:35 17:06:45 13° 283° (WNW) 17:08:54 ?
Uosat F 17 Apr 17:17:11 17:21:53 39° 263° (W) 17:26:36 435.120 FM
SO-50 17 Apr 17:19:45 17:23:04 20° 123° (ESE) 17:26:24 436.795 FM
Gurwin Techsat 1B 17 Apr 17:44:37 17:47:19 14° 282° (WNW) 17:50:02 435.225 FM
OPAL 17 Apr 17:49:32 17:54:41 64° 300° (WNW) 17:59:52 ?
SO-67 17 Apr 17:50:10 17:52:10 15° 48° (NE) 17:54:12 435.3500 MHz FM
HO-68 17 Apr 18:02:51 18:08:21 25° 22° (NNE) 18:13:53 435.675 MHz FM
Hamsat 17 Apr 18:10:09 18:14:20 62° 66° (ENE) 18:18:35 145.90 MHz
JAS-1B 17 Apr 18:23:23 18:29:09 24° 275° (W) 18:34:17 435.800 - 435.900 CW/SSB
Saudisat 1A 17 Apr 18:26:47 18:31:17 83° 19° (NNE) 18:35:44 436.775 MHz
RS-15 17 Apr 18:34:55 18:43:28 28° 254° (WSW) 18:52:07 29.354 - 29.394 USB, Beacon 29.352 USB
JAS-2 17 Apr 18:38:10 18:43:33 54° 60° (ENE) 18:48:38 435.800 - 435.900 CW/SSB, 435.910 FM
STRAND 1 17 Apr 18:46:08 18:48:39 14° 79° (ENE) 18:51:10 ?
AO-7 17 Apr 18:54:54 19:01:29 25° 276° (W) 19:08:07 29.400 - 29.500 MHz
SO-50 17 Apr 18:58:30 19:02:57 60° 145° (SE) 19:07:28 436.795 FM
SO-67 17 Apr 19:21:17 19:24:46 64° 69° (ENE) 19:28:16 435.3500 MHz FM
OPAL 17 Apr 19:28:48 19:32:54 24° 323° (NW) 19:37:01 ?
Oscar 11 17 Apr 19:41:47 19:44:06 14° 38° (NE) 19:46:25 145.825 FM, Beacon 2401.500 USB
Hamsat 17 Apr 19:47:00 19:50:41 28° 268° (W) 19:54:25 145.90 MHz
HO-68 17 Apr 19:48:00 19:54:43 46° 47° (NE) 20:01:27 435.675 MHz FM
UOSAT-12 17 Apr 19:53:13 19:57:13 29° 129° (SE) 20:01:17 437.025 FM, 437.400 FM
Saudisat 1A 17 Apr 20:06:31 20:10:45 43° 222° (SW) 20:14:56 436.775 MHz
ISS 17 Apr 20:11:53 20:13:40 14° 178° (S) 20:15:27 145.800 FM
JAS-2 17 Apr 20:23:39 20:28:57 42° 262° (W) 20:33:57 435.800 - 435.900 CW/SSB, 435.910 FM
STRAND 1 17 Apr 20:24:06 20:29:06 51° 101° (E) 20:34:05 ?
SO-50 17 Apr 20:39:01 20:43:34 73° 348° (NNW) 20:48:11 436.795 FM
SO-67 17 Apr 20:55:33 20:58:17 21° 270° (W) 21:01:03 435.3500 MHz FM
FUNcube-1 17 Apr 21:01:11 21:04:09 19° 46° (NE) 21:07:08 145.950 - 145.970 MHz USB
OPAL 17 Apr 21:07:53 21:10:21 14° 346° (NNW) 21:12:49 ?
Oscar 11 17 Apr 21:15:19 21:19:24 43° 60° (ENE) 21:23:31 145.825 FM, Beacon 2401.500 USB
UOSAT-12 17 Apr 21:32:17 21:36:56 77° 151° (SSE) 21:41:41 437.025 FM, 437.400 FM
HO-68 17 Apr 21:35:03 21:42:13 75° 251° (WSW) 21:49:26 435.675 MHz FM
Saudisat 1A 17 Apr 21:47:17 21:49:25 13° 244° (WSW) 21:51:32 436.775 MHz
ISS 17 Apr 21:48:37 21:49:24 11° 198° (SSW) 21:50:11 145.800 FM
STRAND 1 17 Apr 22:03:29 22:08:21 45° 303° (WNW) 22:13:11 ?
JAS-2 17 Apr 22:14:30 22:15:37 11° 285° (WNW) 22:16:44 435.800 - 435.900 CW/SSB, 435.910 FM
SO-50 17 Apr 22:19:54 22:24:29 73° 12° (NNE) 22:29:07 436.795 FM
FUNcube-1 17 Apr 22:35:52 22:40:02 71° 68° (ENE) 22:44:13 145.950 - 145.970 MHz USB
OPAL 17 Apr 22:45:13 22:47:28 13° 10° (N) 22:49:43 ?
Oscar 11 17 Apr 22:51:32 22:55:40 43° 261° (W) 22:59:51 145.825 FM, Beacon 2401.500 USB
UOSAT-12 17 Apr 23:12:36 23:17:18 69° 355° (N) 23:22:02 437.025 FM, 437.400 FM
MaSat-1 17 Apr 23:24:16 23:26:09 18° 122° (ESE) 23:27:57 437.345 MHz
HO-68 17 Apr 23:25:23 23:31:10 26° 275° (W) 23:36:59 435.675 MHz FM
STRAND 1 17 Apr 23:43:14 23:46:34 18° 326° (NW) 23:49:54 ?
SO-50 18 Apr 00:00:34 00:05:06 61° 215° (SW) 00:09:42 436.795 FM
FUNcube-1 18 Apr 00:13:28 00:16:55 24° 269° (W) 00:20:23 145.950 - 145.970 MHz USB
OPAL 18 Apr 00:21:01 00:24:49 22° 34° (NNE) 00:28:39 ?
UOSAT-12 18 Apr 00:53:02 00:57:47 81° 18° (NNE) 01:02:32 437.025 FM, 437.400 FM
MaSat-1 18 Apr 01:01:48 01:04:21 61° 322° (NW) 01:06:49 437.345 MHz
Sapphire 18 Apr 01:11:54 01:14:14 13° 105° (ESE) 01:16:34 437.095 MHz 1200 baud AX-25 AFSK
STRAND 1 18 Apr 01:23:29 01:24:03 10° 350° (N) 01:24:37 ?
Oscar 19 18 Apr 01:25:23 01:26:35 11° 74° (ENE) 01:27:46 437.125 CW, 437.150 USB
Oscar 16 18 Apr 01:32:33 01:34:48 13° 77° (ENE) 01:37:03 437.025 USB, Beacon 2401.1428
SO-50 18 Apr 01:41:35 01:45:02 21° 237° (WSW) 01:48:31 436.795 FM
PCSat 18 Apr 01:54:25 01:58:38 24° 115° (ESE) 02:02:52 145.825 MHz
OPAL 18 Apr 01:57:57 02:02:53 54° 56° (ENE) 02:07:56 ?
Uribyol 2 18 Apr 02:04:43 02:07:00 13° 77° (ENE) 02:09:16 436.500 FM
UOSAT-12 18 Apr 02:33:18 02:37:51 47° 221° (SW) 02:42:23 437.025 FM, 437.400 FM
MaSat-1 18 Apr 02:41:16 02:43:13 20° 346° (NNW) 02:45:10 437.345 MHz
AO-27 18 Apr 02:43:07 02:47:04 21° 86° (E) 02:50:59 436.795 MHz FM
Sapphire 18 Apr 02:51:20 02:56:25 43° 127° (SE) 03:01:31 437.095 MHz 1200 baud AX-25 AFSK
ITAMSAT 1 18 Apr 02:54:10 02:58:22 24° 88° (E) 03:02:34 435.822 SSB
STRAND 1 18 Apr 03:00:04 03:01:17 11° 14° (NNE) 03:02:29 ?
Oscar 19 18 Apr 03:02:29 03:07:26 41° 97° (E) 03:12:20 437.125 CW, 437.150 USB
Oscar 16 18 Apr 03:10:28 03:15:31 47° 99° (E) 03:20:32 437.025 USB, Beacon 2401.1428
TMSAT-1 18 Apr 03:16:05 03:18:38 13° 77° (ENE) 03:21:10 436.925 FM
AO-Echo 18 Apr 03:17:45 03:22:00 28° 91° (E) 03:26:07 ?
